K5GBW Weather Reports


time (UTC)temp
C
wind
direction
speed
KPH
gust
KPH
rain 1hr
cm
rain 24hr
cm
rain mn
cm
humidity
%
barometer
mb
20260906131616 18 115 0.0 3.2 0.00 0.03 0.00 97 1019.8
20260906130107 18 0 0.0 0.0 0.00 0.03 0.00 97 1019.7
20260906124557 18 0 0.0 0.0 0.00 0.03 0.00 97 1019.4
20260906123057 17 0 0.0 0.0 0.00 0.03 0.00 98 1019.4
20260906121601 17 0 0.0 0.0 0.00 0.03 0.00 98 1019.3
20260906114607 16 0 0.0 0.0 0.00 0.03 0.00 98 1018.8
20260906113105 15 0 0.0 0.0 0.00 0.03 0.00 98 1018.9
20260906111600 16 0 0.0 0.0 0.00 0.03 0.00 98 1018.5
20260906110106 16 0 0.0 0.0 0.00 0.03 0.00 98 1018.4
20260906104601 16 0 0.0 0.0 0.00 0.03 0.00 98 1018.5
20260906103103 16 0 0.0 0.0 0.00 0.03 0.00 98 1018.5
20260906101601 17 0 0.0 0.0 0.00 0.03 0.00 98 1018.3
20260906100055 16 0 0.0 0.0 0.00 0.03 0.00 98 1018.1
20260906094619 16 0 0.0 0.0 0.00 0.03 0.00 98 1018.0
20260906093104 17 0 0.0 0.0 0.00 0.03 0.00 98 1018.0
20260906091602 17 0 0.0 0.0 0.00 0.03 0.00 98 1018.1
20260906090120 17 0 0.0 0.0 0.00 0.03 0.00 99 1018.2
20260906084600 16 0 0.0 0.0 0.00 0.03 0.00 98 1018.1
20260906083057 16 0 0.0 0.0 0.00 0.03 0.00 98 1018.1
20260906081557 17 0 0.0 0.0 0.00 0.03 0.00 98 1018.0
20260906080059 17 0 0.0 0.0 0.00 0.03 0.00 98 1017.8
20260906074605 17 0 0.0 0.0 0.00 0.03 0.00 98 1017.8
20260906073100 17 0 0.0 0.0 0.00 0.03 0.00 98 1017.7
20260906071604 17 0 0.0 0.0 0.00 0.03 0.00 98 1017.7
20260906070109 17 0 0.0 0.0 0.00 0.03 0.00 98 1017.8
20260906064607 17 0 0.0 0.0 0.00 0.03 0.00 98 1017.9
20260906063102 17 0 0.0 0.0 0.00 0.03 0.00 98 1017.9
20260906061612 17 0 0.0 0.0 0.00 0.03 0.00 98 1017.8
20260906060107 17 0 0.0 0.0 0.00 0.03 0.00 98 1017.8
20260906054558 17 0 0.0 0.0 0.00 0.03 0.00 98 1017.7
20260906053101 17 0 0.0 0.0 0.00 0.03 0.00 98 1017.7
20260906051600 17 0 0.0 0.0 0.00 0.03 0.00 98 1017.6
20260906050109 18 0 0.0 0.0 0.00 0.03 0.00 98 1017.7
20260906044603 18 0 0.0 0.0 0.00 0.03 0.03 98 1017.4
20260906043100 18 0 0.0 0.0 0.00 0.03 0.03 98 1017.2
20260906041557 18 0 0.0 0.0 0.00 0.03 0.03 97 1017.2
20260906040107 18 0 0.0 0.0 0.00 0.03 0.03 97 1017.1
20260906034602 18 0 0.0 1.6 0.00 0.03 0.03 97 1017.2
20260906033102 18 0 0.0 1.6 0.00 0.03 0.03 97 1017.3
20260906031605 18 0 0.0 1.6 0.00 0.03 0.03 97 1017.3
20260906030105 18 0 0.0 0.0 0.00 0.03 0.03 97 1017.1
20260906024601 19 0 0.0 3.2 0.00 0.03 0.03 97 1017.0
20260906023106 19 0 0.0 3.2 0.00 0.03 0.03 97 1016.9
20260906021606 19 63 0.0 3.2 0.00 0.03 0.03 97 1017.1
20260906020101 19 46 0.0 3.2 0.00 0.03 0.03 96 1017.2
20260906014608 20 30 0.0 3.2 0.00 0.03 0.03 96 1017.0
20260906013103 20 0 0.0 6.4 0.00 0.03 0.03 95 1017.1
20260906011619 20 0 0.0 4.8 0.00 0.03 0.03 95 1016.9
20260906010105 20 0 0.0 3.2 0.00 0.03 0.03 95 1016.8
20260906004605 20 0 0.0 6.4 0.00 0.03 0.03 94 1016.7
20260906003111 21 152 0.0 4.8 0.00 0.03 0.03 95 1016.6
20260906001604 21 44 1.6 4.8 0.00 0.03 0.03 95 1016.6
20260905234603 21 14 3.2 8.0 0.00 0.03 0.03 95 1016.8
20260905233136 21 0 3.2 12.9 0.00 0.03 0.03 95 1016.8
20260905231606 21 315 0.0 8.0 0.00 0.03 0.03 95 1016.7
20260905230104 21 44 0.0 8.0 0.00 0.03 0.03 95 1016.6
20260905224612 21 122 1.6 9.7 0.00 0.03 0.03 94 1016.7
20260905223106 21 39 1.6 9.7 0.00 0.03 0.03 93 1016.7
20260905221608 21 22 0.0 6.4 0.00 0.03 0.03 93 1016.3
20260905220105 21 51 1.6 11.3 0.00 0.03 0.03 92 1016.4
20260905214600 22 28 1.6 14.5 0.00 0.03 0.03 91 1016.2
20260905213105 22 165 1.6 9.7 0.00 0.03 0.03 91 1016.0
20260905211604 22 94 3.2 9.7 0.00 0.03 0.03 90 1015.9
20260905210105 23 26 4.8 16.1 0.00 0.03 0.03 88 1015.7
20260905204559 23 138 6.4 14.5 0.00 0.03 0.03 88 1015.7
20260905203056 23 347 3.2 12.9 0.00 0.03 0.03 90 1015.7
20260905201608 24 77 4.8 9.7 0.00 0.03 0.03 88 1015.9
20260905200107 25 53 3.2 8.0 0.00 0.03 0.03 88 1015.9
20260905194601 25 5 4.8 9.7 0.00 0.03 0.03 87 1015.7
20260905193056 25 56 3.2 12.9 0.00 0.03 0.03 90 1015.8
20260905191610 25 311 3.2 12.9 0.00 0.03 0.03 88 1015.8
20260905190132 25 43 3.2 9.7 0.00 0.03 0.03 88 1015.7
20260905184623 25 20 3.2 9.7 0.00 0.03 0.03 89 1015.7
20260905183059 25 44 0.0 8.0 0.00 0.03 0.03 89 1015.9
20260905181610 25 49 1.6 11.3 0.00 0.03 0.03 90 1015.9
20260905180107 24 13 3.2 11.3 0.00 0.03 0.03 93 1015.7
20260905174559 23 23 1.6 11.3 0.00 0.03 0.03 94 1016.1
20260905173059 22 75 3.2 11.3 0.00 0.03 0.03 95 1016.0
20260905171604 22 11 4.8 11.3 0.00 0.03 0.03 96 1015.9
20260905170123 22 14 0.0 9.7 0.00 0.03 0.03 98 1016.1
20260905164605 22 8 3.2 6.4 0.03 0.38 0.03 98 1016.2
20260905163106 22 0 0.0 6.4 0.03 0.38 0.03 98 1016.1
20260905161603 22 56 1.6 6.4 0.03 0.38 0.03 98 1016.2
20260905160100 21 0 0.0 8.0 0.03 0.38 0.03 98 1016.2
20260905154609 21 53 1.6 11.3 0.00 0.36 0.00 98 1016.0
20260905153100 21 0 0.0 3.2 0.00 0.36 0.00 98 1016.1
20260905151603 21 23 1.6 8.0 0.00 0.36 0.00 98 1015.9
20260905150108 21 49 1.6 4.8 0.00 0.36 0.00 98 1015.8
20260905144605 22 29 1.6 4.8 0.00 0.56 0.00 98 1015.5
20260905143104 22 115 0.0 4.8 0.00 0.56 0.00 98 1015.2
20260905141629 21 73 1.6 4.8 0.00 0.56 0.00 99 1015.3
20260905140101 21 0 1.6 3.2 0.00 0.56 0.00 99 1015.2
20260905134605 21 0 1.6 6.4 0.00 0.56 0.00 99 1015.2
20260905133102 21 54 0.0 4.8 0.00 0.56 0.00 99 1015.2